Location: Oak Glen
(34.0495°N, 116.9470°E)
Time: 04:58:23
(UTC-07:00)

Vanguard 1 - Pass Details

Date: 22 June 2018
Orbit: 650 x 3833 km, 34.2° (Epoch: 21 July)

Event Time Altitude Azimuth Distance (km) Brightness Sun altitude
Rises 18:40:43 0° 280° (W) 5,652 13.6 54.9°
Reaches altitude 10° 18:43:45 10° 280° (W) 4,980 13.4 55.5°
Maximum altitude 18:59:56 83° 195° (SSW) 3,390 14.0 58.8°
Drops below altitude 10° 19:23:49 10° 111° (ESE) 6,898 15.0 63.7°
Sets 19:28:59 0° 111° (ESE) 7,810 15.0 64.7°
